Terminal Aerodrome Forecast
Issued by NWS

Home | Current Version | Previous Version | Graphics & Text | Print | Product List | Glossary On
Versions: 1 2 3 4 5 6 7 8 9 10 11 12 13 14 15 16 17 18 19 20 21 22 23
000
FTUS43 KMPX 260400 AAA
TAFRWF
TAF AMD
KRWF 260401Z 2604/2624 14008KT P6SM OVC050
     FM260600 13009KT 4SM -SN OVC025
     FM260800 11008KT 1 1/2SM -SN BR OVC010
      TEMPO 2609/2613 1/2SM SN FG VV003
     FM261500 36013G24KT 2SM -SN BLSN OVC008
     FM262000 33013G25KT 5SM -SN BLSN OVC012=

USA.gov is the U.S. government's official web portal to all federal, state and local government web resources and services.